Regional Weather Roundup
Issued by NWS

Home | Current Version | Previous Version | Text Only | Print | Product List | Glossary Off
Versions: 1 2 3 4 5 6 7 8 9 10 11 12 13 14 15 16 17 18 19 20 21 22 23 24 25 26 27 28 29 30 31 32 33 34 35 36 37 38 39 40 41 42 43 44 45 46 47 48 49 50

000
ASUS43 KFSD 020502
RWRSD

WEATHER ROUNDUP FOR SOUTH DAKOTA
NATIONAL WEATHER SERVICE SIOUX FALLS SD
1200 AM CDT WED SEP 02 2015

NOTE: "FAIR" INDICATES FEW OR NO CLOUDS BELOW 12,000 FEET WITH NO
SIGNIFICANT WEATHER AND/OR OBSTRUCTIONS TO VISIBILITY.


SDZ001>005-009-010-012>017-020600-
NORTHWEST AND NORTH CENTRAL SOUTH DAKOTA

CITY           SKY/WX    TMP DP  RH WIND       PRES   REMARKS
BUFFALO          N/A     70  55  59 S5        29.79F
FAITH            N/A     69  55  60 SW6       29.83S
MOBRIDGE       CLEAR     69  67  93 SE7       29.78F
$$

SDZ012>016-024>037-041>051-057-063-072>074-020600-
SOUTHWEST AND SOUTH CENTRAL SOUTH DAKOTA

CITY           SKY/WX    TMP DP  RH WIND       PRES   REMARKS
RAPID CTY ARPT CLEAR     63  54  72 NW6       29.88S
PIERRE         CLEAR     72  68  87 E8        29.78F
CUSTER         CLEAR     55  45  68 N3        30.05S
ELLSWORTH AFB  CLEAR     65  54  69 W6        29.88S
PHILIP         CLEAR     63  60  90 W3        29.80F
PINE RIDGE     CLEAR     56  47  71 CALM      29.90R
WINNER           N/A     76  63  64 S16       29.81F
$$

SDZ004>011-016>023-039-040-020600-
NORTHEAST SOUTH DAKOTA

CITY           SKY/WX    TMP DP  RH WIND       PRES   REMARKS
ABERDEEN       CLEAR     66  63  90 SE5       29.83S
WATERTOWN      CLEAR     70  62  76 SE8       29.87F
BROOKINGS      CLEAR     68  63  83 E12       29.89F
$$

SDZ017-020-022-023-036>040-048>070-020600-
SOUTHEAST SOUTH DAKOTA

CITY           SKY/WX    TMP DP  RH WIND       PRES   REMARKS
SIOUX FALLS    PTCLDY    74  70  87 S6        29.86F
HURON          CLEAR     69  67  93 SE7       29.82F FOG
CHAMBERLAIN    CLEAR     69  68  97 SE7       29.81F
MITCHELL       CLEAR     68  68 100 SE5       29.82F FOG
YANKTON        CLEAR     75  68  78 S6        29.83F
$$

ABBREVIATIONS USED IN REMARKS
   TC - TEMPERATURE IN CELSIUS
  WCI - WIND CHILL INDEX
   HX - HEAT INDEX
  VSB - VISIBILITY



USA.gov is the U.S. government's official web portal to all federal, state and local government web resources and services.